Temperature
8 10 10 9 9 9 10 10 10 9 7 7 7 6 6 5 4 3 3 3 2 2 2 2 2 3 4 4 5 5 5 5 5 5 6 6 6 7 7 7 7 7 7 7
10 9 8 8 8 8 9 9 9 8 7 6 6 6 5 4 3 2 2 2 1 1 1 1 2 2 3 3 4 4 4 5 5 5 5 5 5 6 6 6 6 6 6 6
9 7 7 7 8 8 8 8 8 7 6 6 6 6 5 4 3 2 1 1 0 0 0 0 1 1 2 2 3 3 3 4 4 4 4 4 4 5 5 5 5 5 6 6
7 6 7 7 7 7 8 7 6 6 7 8 7 8 7 5 3 2 1 1 0 -0 -0 -0 -0 0 1 1 2 2 2 3 3 3 3 3 3 4 4 4 4 5 5 5
7 6 6 6 6 6 7 6 6 6 6 7 6 7 8 4 3 3 1 0 -1 -1 -1 -1 -1 -0 -0 0 1 1 2 2 2 2 3 3 3 3 3 3 4 4 4 4
6 5 5 5 5 5 5 6 6 6 6 6 6 7 7 5 3 3 1 -0 -1 -1 -1 -1 -1 -1 -0 0 0 1 1 1 2 2 2 2 2 2 2 2 3 3 3 4
6 6 5 4 5 6 6 7 7 7 7 8 5 6 6 3 2 2 1 -1 -1 -1 -2 -2 -2 -2 -1 -1 -0 -0 0 1 1 1 1 1 1 1 1 2 2 2 3 3
6 6 5 4 5 5 5 6 7 7 8 8 5 5 5 2 1 -0 -1 -1 -2 -2 -2 -2 -2 -2 -2 -2 -1 -1 -1 -0 -0 0 1 1 1 1 1 1 1 1 2 2
6 6 4 4 3 4 5 5 4 5 5 5 6 5 3 1 1 -0 -1 -1 -2 -2 -2 -3 -3 -3 -3 -2 -2 -2 -1 -1 -1 -1 -0 -0 -0 0 0 0 1 1 1 1
4 4 4 3 4 3 4 4 4 4 5 6 6 6 5 2 1 0 -1 -1 -2 -3 -3 -3 -3 -3 -3 -3 -3 -2 -2 -2 -2 -1 -1 -1 -1 -1 -0 -0 0 0 1 1
3 4 4 4 4 4 3 3 3 4 4 4 5 6 3 2 1 -0 -1 -2 -3 -3 -3 -4 -4 -3 -3 -3 -3 -3 -2 -2 -2 -2 -2 -2 -1 -1 -1 -1 -0 -0 0 0
2 3 4 3 2 2 2 3 3 3 3 3 4 4 1 0 -1 -1 -2 -2 -3 -3 -4 -4 -4 -4 -4 -3 -3 -3 -3 -3 -3 -2 -2 -2 -2 -2 -2 -1 -1 -1 -0 0
2 2 4 4 3 1 1 1 1 1 2 2 3 4 -0 -1 -1 -2 -2 -3 -3 -4 -4 -4 -4 -4 -4 -4 -4 -3 -3 -3 -3 -3 -3 -3 -3 -2 -2 -2 -1 -1 -1 -0
2 2 3 4 4 2 1 1 0 1 1 2 2 2 1 -0 -1 -2 -3 -3 -4 -4 -4 -4 -4 -4 -4 -4 -4 -4 -4 -4 -4 -3 -3 -3 -3 -3 -3 -3 -2 -2 -1 -1
1 2 1 1 1 1 1 0 0 -0 1 1 1 0 0 -0 -2 -3 -3 -4 -4 -4 -4 -5 -5 -5 -5 -5 -5 -4 -4 -4 -4 -4 -4 -4 -3 -3 -3 -3 -3 -2 -2 -2
0 0 -0 -0 -0 -0 -0 -0 -0 -1 -0 -1 -1 -0 -1 -3 -3 -4 -4 -4 -4 -5 -5 -5 -5 -5 -5 -5 -5 -5 -5 -5 -5 -4 -4 -4 -4 -4 -4 -4 -3 -3 -2 -2
-0 -1 -0 1 -1 -1 0 -0 -1 -1 -1 -1 -1 -0 -2 -3 -3 -4 -4 -5 -5 -5 -6 -6 -6 -6 -6 -6 -6 -5 -5 -5 -5 -5 -5 -5 -5 -5 -4 -4 -4 -4 -3 -3
-1 -1 -1 -0 -1 -0 1 -2 -2 -2 -2 -2 -2 -2 -3 -4 -5 -5 -5 -5 -6 -6 -6 -6 -6 -6 -6 -6 -6 -6 -6 -5 -5 -5 -5 -5 -5 -5 -5 -5 -4 -4 -4 -4
-2 -1 -1 -1 -0 1 -0 -2 -3 -3 -2 -3 -3 -3 -4 -5 -5 -4 -5 -6 -6 -7 -7 -7 -7 -7 -6 -7 -7 -6 -6 -6 -6 -6 -6 -6 -6 -5 -5 -5 -5 -5 -5 -4
-3 -3 -1 -2 -1 0 0 -3 -4 -3 -2 -3 -4 -4 -5 -5 -3 -3 -6 -6 -7 -7 -7 -7 -7 -7 -7 -7 -7 -7 -7 -7 -6 -6 -6 -6 -6 -6 -6 -6 -5 -5 -5 -5
-3 -3 -3 -2 -1 -0 -2 -4 -4 -2 -1 -4 -5 -5 -6 -6 -5 -6 -7 -7 -7 -7 -8 -8 -7 -7 -7 -8 -7 -7 -7 -7 -7 -7 -7 -7 -6 -6 -6 -6 -6 -6 -6 -5
-2 -2 -3 -3 -2 -1 -4 -4 -3 -3 -5 -5 -6 -6 -7 -7 -7 -7 -7 -8 -8 -8 -8 -8 -8 -8 -8 -8 -8 -8 -8 -8 -7 -7 -7 -7 -7 -7 -7 -6 -6 -6 -6 -6
-4 -3 -2 -2 -1 -4 -5 -5 -5 -5 -6 -6 -7 -7 -7 -8 -8 -8 -8 -8 -8 -8 -8 -8 -8 -8 -8 -8 -8 -8 -8 -8 -8 -8 -8 -8 -7 -7 -7 -7 -7 -7 -7 -7
-5 -6 -5 -5 -4 -5 -6 -6 -6 -6 -7 -7 -7 -8 -8 -8 -8 -8 -8 -9 -9 -9 -9 -9 -9 -9 -9 -9 -9 -9 -9 -9 -9 -8 -8 -8 -8 -8 -8 -7 -7 -7 -8 -7
-4 -6 -5 -5 -5 -6 -6 -6 -7 -7 -7 -7 -8 -8 -8 -9 -9 -9 -9 -9 -9 -9 -9 -9 -9 -9 -9 -9 -9 -9 -9 -9 -9 -9 -9 -9 -9 -9 -8 -8 -8 -8 -8 -8
-6 -6 -5 -4 -5 -6 -6 -7 -7 -7 -8 -8 -8 -8 -9 -9 -9 -9 -9 -10 -10 -10 -10 -10 -10 -10 -10 -10 -10 -9 -9 -10 -10 -9 -9 -9 -9 -9 -9 -9 -8 -8 -8 -8
Wind_Speed
4 3 2 2 1 1 1 3 5 4 1 2 3 4 4 2 2 2 3 4 5 6 7 8 8 8 8 9 9 8 8 8 7 5 4 4 3 3 3 3 4 4 4 4
3 3 3 2 2 1 2 4 6 3 1 2 4 5 3 1 1 2 3 4 6 7 8 9 9 9 9 9 9 8 8 7 6 5 5 4 4 3 3 3 4 4 5 5
4 3 2 2 3 1 2 4 5 5 4 3 4 5 3 1 2 3 4 4 6 7 7 8 9 9 9 9 10 8 8 7 7 7 5 5 3 3 3 4 3 4 5 5
4 3 3 2 3 3 3 2 4 5 5 4 4 5 3 3 1 3 4 5 6 6 7 7 8 9 9 9 9 9 8 7 7 6 5 6 4 4 5 4 4 5 5 5
2 3 3 2 3 3 3 4 4 5 5 6 5 6 3 3 2 2 3 5 6 6 7 7 8 8 9 9 9 9 9 8 8 7 6 6 6 5 5 5 5 5 4 5
2 2 2 2 2 1 3 3 3 3 4 6 5 6 4 2 2 2 2 4 6 6 7 7 7 8 8 9 9 9 9 8 8 8 7 7 7 7 7 6 6 5 4 4
1 1 2 2 2 1 3 3 3 3 4 5 2 5 3 2 1 0 2 4 5 6 6 7 8 8 9 10 10 9 10 9 8 8 8 8 8 7 7 7 6 6 5 5
1 1 2 2 2 2 2 3 3 4 5 5 3 5 1 3 2 1 2 3 5 6 7 7 8 8 8 9 10 10 10 9 9 9 9 8 8 6 6 7 6 6 6 6
2 2 1 2 2 2 1 1 2 3 5 6 5 3 2 2 1 2 4 5 6 7 7 8 8 8 8 8 9 9 9 9 9 9 9 8 8 8 8 8 7 6 6 6
1 3 2 2 1 2 2 1 2 2 4 6 6 6 3 2 2 3 5 6 7 8 8 8 7 8 8 8 8 9 9 9 9 9 8 7 8 8 8 7 7 7 7 7
1 3 2 1 2 2 1 1 2 3 4 5 7 4 2 1 2 3 5 7 7 8 7 7 7 7 8 8 8 9 9 9 9 9 9 9 8 8 8 8 8 8 8 8
1 2 4 3 0 1 2 3 3 4 5 6 7 5 3 0 2 4 6 7 7 8 7 7 7 7 8 9 9 9 9 9 9 9 9 9 9 8 8 9 9 8 8 8
2 2 3 3 3 2 3 2 3 3 4 6 7 6 3 1 4 5 7 7 8 8 8 7 7 7 8 9 9 9 9 9 10 9 9 9 9 9 9 9 9 9 8 8
2 4 6 8 6 3 5 5 5 5 6 8 11 12 7 7 7 8 8 8 8 8 8 8 8 8 8 9 9 10 10 10 9 9 9 9 10 10 9 9 9 9 8 8
2 5 6 9 9 8 9 10 9 10 10 10 10 11 11 9 9 9 8 8 8 8 8 8 9 9 9 9 9 9 10 10 9 9 9 9 10 10 9 9 9 9 8 8
2 4 4 6 6 7 9 10 10 11 10 11 13 13 8 7 6 8 8 8 8 9 9 10 10 10 9 9 10 10 10 10 10 9 9 9 9 9 9 9 9 9 8 8
3 3 3 5 4 6 8 7 8 7 7 7 9 7 5 7 8 9 9 8 8 9 10 11 10 10 11 10 10 10 10 10 9 9 9 9 9 9 9 9 9 8 8 8
4 4 3 4 4 7 1 2 3 6 8 8 8 8 7 8 9 8 7 7 9 10 11 11 11 11 10 9 9 10 10 9 9 9 9 9 9 10 9 9 9 9 8 7
4 4 3 3 5 8 3 2 2 4 6 5 7 8 7 8 8 5 3 6 8 10 10 10 10 10 10 9 9 9 9 9 9 9 9 9 9 10 9 9 9 8 8 7
2 3 4 4 5 6 1 2 1 2 5 2 3 6 6 5 6 5 6 8 9 9 9 10 10 10 9 9 9 9 9 9 9 9 9 9 9 9 9 9 9 8 7 7
3 4 6 7 7 7 1 2 3 4 3 0 3 5 4 5 6 7 9 9 8 9 10 10 9 9 9 9 9 9 9 10 10 9 9 9 9 9 9 9 8 7 7 7
6 5 6 5 7 6 4 4 4 3 2 2 4 4 5 7 8 8 8 9 9 10 10 10 9 9 9 9 8 9 10 10 10 9 9 9 9 8 7 8 7 7 6 6
6 5 4 6 5 1 4 3 2 1 3 4 5 5 6 7 8 8 8 9 9 9 9 9 9 10 9 9 8 10 10 10 9 9 9 8 8 7 7 7 7 6 5 4
4 3 4 5 7 4 5 4 3 3 4 5 5 6 5 6 7 8 8 9 9 9 9 9 10 10 10 10 9 9 10 9 8 9 9 8 7 7 7 6 5 5 5 5
4 5 4 7 6 4 3 4 4 4 4 4 5 4 5 6 7 8 8 8 8 8 8 8 9 9 11 10 10 10 9 9 8 8 8 7 6 6 6 6 5 6 5 5
4 5 5 5 2 3 3 3 3 3 4 5 5 5 5 5 6 7 7 7 8 8 8 9 9 10 10 10 10 9 9 8 8 7 7 6 6 5 5 5 6 7 7 8
Wind_Direction
39 72 57 27 4 316 278 262 275 284 307 304 252 266 297 340 15 14 13 16 16 10 5 6 4 6 7 9 7 7 6 5 4 357 348 340 334 330 330 333 330 327 317 308
100 53 16 40 65 105 259 273 281 288 296 272 263 269 298 355 47 29 15 12 8 4 5 6 5 7 7 5 2 0 0 359 359 352 341 326 312 308 317 328 323 321 316 308
85 40 30 77 48 331 273 272 280 286 301 243 266 257 231 149 77 44 29 19 12 5 360 1 1 2 4 3 358 352 350 350 352 350 346 342 332 327 325 320 309 312 307 302
65 33 47 49 8 321 285 307 279 279 278 269 258 271 217 188 114 37 23 14 8 3 358 358 357 356 357 356 354 351 348 348 350 349 344 339 325 315 310 307 301 304 301 298
62 21 22 11 343 316 300 311 269 263 263 269 244 251 238 177 238 314 359 5 0 357 354 354 352 350 349 351 352 350 348 351 350 347 341 329 321 311 306 303 300 300 299 297
65 48 15 345 329 306 302 280 241 229 238 251 239 236 254 193 248 285 339 356 354 352 350 350 349 349 349 351 352 351 348 349 349 345 339 329 321 317 311 306 298 295 292 292
18 72 37 352 329 4 328 297 277 254 240 256 178 234 251 129 107 286 326 339 346 348 349 350 348 347 347 348 349 349 347 345 345 342 337 328 320 313 305 301 295 292 289 286
304 282 30 6 337 300 301 292 279 283 280 292 237 241 155 117 98 32 350 340 342 343 344 343 342 341 341 343 344 347 344 342 340 338 332 327 325 314 305 300 297 289 285 283
296 275 29 2 349 302 253 226 307 281 281 274 253 238 214 175 273 341 340 340 337 334 333 334 336 339 338 339 341 342 339 338 337 332 329 324 324 319 310 302 297 291 288 291
285 271 288 323 221 56 351 193 217 247 279 274 268 258 248 214 271 309 326 324 324 327 328 329 332 336 337 336 335 336 337 336 333 332 327 321 319 316 312 305 298 296 294 294
256 255 278 248 227 259 167 192 236 244 263 276 284 282 83 229 281 306 315 317 318 321 323 325 328 331 333 335 334 334 334 335 333 330 326 320 319 317 313 310 303 298 295 290
184 254 266 255 330 341 249 240 230 252 256 252 273 279 95 54 321 313 317 317 320 323 321 321 324 327 332 334 334 332 331 331 329 326 322 321 319 317 315 312 307 302 296 289
176 215 281 257 202 189 228 228 237 257 260 251 259 269 100 334 310 313 316 317 321 323 324 321 323 325 328 328 329 330 328 328 327 325 323 322 322 320 316 312 308 306 301 294
199 224 240 264 292 270 257 248 233 229 247 259 255 276 290 300 308 314 317 316 317 319 321 321 322 321 323 324 325 325 325 325 325 324 321 320 322 319 315 313 310 308 305 295
222 249 254 269 278 270 264 260 246 238 247 258 273 278 290 305 310 310 312 314 316 320 322 322 323 323 320 321 322 321 322 323 323 321 320 320 321 320 317 316 316 314 310 305
221 249 266 271 268 274 267 260 249 247 250 257 273 278 293 310 308 309 314 316 315 318 321 320 324 325 321 320 319 319 320 322 320 319 318 320 321 321 320 319 318 316 314 310
203 209 246 267 296 291 263 246 227 231 234 240 259 281 314 310 310 312 315 315 313 317 320 322 324 321 319 317 317 316 314 316 317 316 317 321 322 321 321 320 319 317 315 311
199 206 234 276 290 252 256 118 218 240 249 239 259 284 296 303 307 298 304 315 320 321 320 320 319 317 317 316 316 314 314 314 315 316 317 320 321 320 322 322 321 318 315 312
210 202 217 236 262 272 262 199 193 233 264 242 256 278 297 315 305 293 330 331 321 319 317 316 316 314 316 316 317 315 314 316 315 317 316 317 318 317 319 319 318 317 315 315
139 203 221 223 253 264 275 119 149 220 263 203 245 282 303 313 302 317 339 327 321 321 322 321 320 319 319 319 318 314 315 316 315 315 313 313 313 312 313 314 315 316 316 314
181 198 219 231 247 267 250 154 180 238 303 3 268 280 284 276 286 308 316 316 318 320 321 322 321 320 320 322 320 315 314 315 316 314 312 311 312 312 312 314 316 319 321 321
197 197 207 211 232 254 142 165 213 275 352 292 284 284 284 286 296 305 311 315 320 322 324 325 323 322 323 324 322 317 314 316 317 315 312 312 314 316 315 317 319 320 320 322
214 215 218 214 235 335 179 219 257 291 284 291 289 290 288 292 297 306 310 313 317 320 323 324 322 321 324 327 324 317 317 319 317 315 315 315 317 318 318 318 318 319 320 322
217 212 225 251 260 261 247 250 267 277 279 288 290 290 287 288 296 303 307 311 317 321 323 324 324 324 325 327 326 321 321 320 316 314 317 318 320 323 326 324 321 320 320 321
224 187 219 252 274 288 242 247 274 282 283 290 295 291 287 289 296 302 306 311 315 318 322 323 322 322 323 326 326 326 326 323 319 317 317 318 321 322 327 329 327 322 318 318
197 198 213 247 248 251 277 280 273 277 287 290 292 293 295 292 296 303 304 309 313 316 320 322 322 322 323 326 327 329 329 325 322 321 322 322 323 323 325 328 331 337 335 337
Height
1535 1535 1535 1538 1539 1538 1537 1536 1535 1538 1543 1543 1541 1542 1543 1545 1545 1544 1543 1542 1541 1540 1539 1537 1535 1533 1531 1529 1528 1527 1525 1524 1523 1523 1522 1521 1521 1521 1521 1521 1521 1521 1521 1520
1535 1539 1543 1543 1542 1541 1539 1538 1537 1539 1544 1544 1541 1541 1542 1543 1544 1544 1544 1543 1541 1539 1537 1535 1534 1532 1530 1528 1527 1526 1524 1523 1522 1521 1520 1519 1519 1518 1518 1518 1517 1517 1517 1517
1537 1546 1546 1544 1542 1541 1540 1539 1539 1540 1543 1543 1542 1536 1539 1542 1544 1545 1544 1543 1542 1540 1538 1535 1533 1531 1529 1527 1525 1524 1523 1522 1521 1519 1518 1517 1516 1515 1515 1514 1514 1514 1513 1513
1544 1548 1546 1544 1544 1543 1539 1542 1543 1543 1539 1533 1538 1526 1530 1538 1541 1543 1543 1542 1541 1539 1537 1535 1533 1530 1528 1526 1524 1522 1521 1520 1519 1517 1516 1515 1513 1512 1511 1511 1510 1510 1509 1509
1546 1549 1547 1546 1547 1546 1543 1544 1543 1541 1538 1536 1535 1532 1524 1536 1538 1540 1542 1542 1540 1539 1537 1534 1532 1530 1528 1525 1523 1521 1520 1518 1516 1515 1513 1512 1511 1509 1509 1508 1507 1506 1506 1505
1549 1551 1550 1549 1549 1548 1546 1543 1541 1540 1537 1533 1529 1529 1520 1532 1536 1539 1541 1541 1540 1538 1536 1534 1531 1529 1527 1524 1522 1520 1518 1516 1514 1512 1511 1509 1508 1506 1505 1504 1503 1502 1501 1501
1547 1550 1551 1551 1547 1547 1545 1539 1532 1529 1527 1521 1531 1529 1527 1535 1539 1540 1541 1540 1539 1537 1535 1532 1530 1527 1525 1522 1520 1517 1515 1513 1511 1510 1508 1506 1505 1503 1502 1501 1499 1498 1497 1496
1545 1545 1550 1551 1549 1547 1546 1543 1538 1531 1521 1517 1528 1525 1530 1539 1541 1541 1541 1540 1538 1536 1534 1531 1529 1526 1523 1521 1518 1516 1513 1511 1509 1507 1505 1504 1502 1500 1498 1497 1496 1494 1493 1492
1546 1546 1552 1552 1552 1549 1545 1544 1547 1542 1537 1533 1520 1526 1535 1539 1539 1539 1539 1538 1536 1534 1532 1529 1527 1524 1522 1519 1517 1514 1511 1509 1506 1504 1502 1500 1498 1496 1495 1493 1492 1490 1489 1488
1552 1551 1551 1552 1552 1552 1550 1548 1546 1543 1537 1524 1515 1518 1521 1533 1535 1537 1537 1536 1535 1533 1530 1528 1525 1522 1520 1517 1515 1512 1509 1507 1504 1502 1500 1497 1495 1493 1491 1489 1487 1486 1484 1484
1555 1552 1550 1551 1549 1547 1550 1550 1546 1542 1541 1532 1519 1517 1530 1532 1535 1536 1536 1535 1533 1531 1528 1526 1523 1521 1518 1516 1513 1510 1507 1504 1501 1499 1496 1494 1491 1489 1487 1484 1482 1481 1479 1478
1555 1553 1548 1548 1552 1554 1551 1549 1547 1543 1542 1540 1531 1526 1534 1535 1536 1536 1535 1534 1532 1529 1527 1524 1522 1519 1516 1513 1511 1508 1505 1501 1498 1495 1492 1490 1487 1485 1482 1480 1478 1476 1475 1473
1556 1554 1547 1541 1550 1554 1552 1551 1551 1549 1545 1539 1533 1526 1535 1536 1535 1535 1534 1532 1530 1527 1525 1522 1519 1517 1514 1511 1508 1505 1502 1499 1495 1492 1489 1486 1484 1481 1478 1476 1473 1471 1470 1468
1555 1552 1548 1539 1536 1544 1548 1550 1550 1549 1542 1535 1531 1526 1531 1533 1533 1533 1532 1530 1528 1525 1523 1520 1517 1514 1512 1509 1506 1502 1499 1496 1493 1489 1486 1483 1480 1477 1474 1472 1469 1467 1465 1463
1554 1550 1549 1548 1547 1547 1546 1546 1546 1546 1540 1537 1529 1531 1530 1532 1533 1531 1530 1528 1525 1523 1520 1518 1515 1512 1509 1506 1503 1500 1496 1493 1490 1486 1483 1480 1477 1474 1471 1468 1465 1463 1461 1459
1553 1551 1551 1548 1547 1546 1544 1542 1542 1542 1541 1538 1535 1532 1532 1533 1532 1529 1527 1525 1523 1520 1518 1515 1512 1509 1506 1503 1500 1496 1493 1490 1487 1483 1480 1477 1474 1471 1468 1465 1462 1459 1456 1454
1552 1552 1549 1542 1546 1545 1536 1535 1537 1538 1537 1537 1532 1531 1532 1531 1530 1528 1526 1524 1521 1519 1516 1513 1509 1507 1503 1500 1497 1494 1490 1487 1484 1481 1478 1474 1471 1468 1465 1462 1459 1456 1453 1450
1551 1551 1550 1545 1545 1540 1531 1537 1536 1536 1534 1535 1533 1532 1532 1531 1528 1526 1524 1522 1519 1517 1513 1510 1507 1504 1501 1497 1494 1491 1488 1484 1481 1478 1475 1472 1468 1465 1462 1459 1456 1453 1450 1447
1550 1550 1548 1546 1538 1528 1531 1535 1536 1536 1532 1532 1532 1531 1530 1528 1525 1523 1521 1520 1518 1515 1512 1508 1505 1501 1497 1494 1491 1488 1485 1481 1479 1476 1472 1469 1466 1463 1459 1456 1453 1450 1447 1444
1551 1550 1548 1545 1539 1528 1527 1535 1535 1537 1529 1529 1530 1529 1528 1527 1523 1521 1520 1518 1515 1512 1509 1505 1501 1498 1494 1491 1488 1485 1482 1479 1476 1473 1470 1467 1464 1461 1457 1454 1451 1448 1445 1443
1548 1548 1546 1542 1537 1526 1531 1534 1535 1532 1525 1529 1528 1528 1527 1526 1524 1522 1518 1516 1513 1510 1506 1502 1498 1495 1492 1488 1485 1482 1479 1476 1473 1470 1467 1464 1461 1458 1455 1452 1449 1447 1444 1441
1539 1540 1542 1540 1536 1529 1531 1532 1531 1527 1527 1527 1526 1526 1525 1523 1521 1518 1516 1513 1510 1507 1503 1500 1496 1493 1489 1486 1482 1479 1476 1474 1470 1467 1464 1461 1459 1456 1453 1450 1447 1445 1442 1440
1538 1535 1532 1532 1528 1528 1528 1527 1527 1527 1526 1525 1524 1523 1522 1520 1518 1516 1513 1510 1507 1504 1501 1497 1493 1490 1487 1483 1480 1477 1473 1470 1467 1464 1461 1459 1456 1453 1451 1448 1446 1443 1441 1439
1535 1536 1534 1531 1526 1526 1526 1525 1525 1524 1524 1523 1522 1520 1519 1517 1515 1513 1510 1507 1504 1501 1498 1495 1491 1487 1484 1481 1477 1474 1470 1467 1465 1462 1459 1456 1453 1451 1449 1447 1444 1442 1440 1438
1529 1532 1530 1528 1524 1524 1523 1523 1522 1522 1521 1520 1519 1517 1516 1514 1512 1510 1507 1504 1501 1498 1495 1492 1489 1485 1481 1478 1475 1472 1468 1465 1463 1460 1457 1454 1452 1449 1447 1445 1443 1441 1439 1438
1526 1527 1525 1521 1522 1523 1521 1520 1520 1519 1518 1517 1516 1514 1513 1511 1509 1507 1504 1502 1499 1495 1492 1489 1486 1482 1479 1475 1472 1469 1466 1463 1460 1457 1455 1453 1450 1448 1445 1443 1442 1440 1439 1437